OneWeb SL0007

operational
NORAD ID: 44060 Int'l Des: 2019-010 Owner: ONEWEB Country: UK Constellation: oneweb
LEOCIRCULARPOLARONEWEB_TYPE

Über OneWeb SL0007

Beschreibung wird geladen...

Live-Position

3D-Globus wird geladen...

Nächste Überflüge

Höhenverlauf

Altitude vs Time

uPlot chart will show altitude changes over time

Zweizeiliger Elementsatz

1 44060U 19010D 25304.25437809 .00000001 00000-0 -30370-4 0 9996
2 44060 87.8962 304.9154 0001936 100.0020 260.1329 13.15549719321277
Epoch: 31. Okt. 2025 • Age: 9 hours

Aktueller Status

Höhe 1227.5 km
Geschwindigkeit 7.24 km/s
Subsatellitenpunkt -63.30°S, 36.85°E
Startdatum 27. Feb. 2019
Alter 6.6 years
Typ internet

Technische Details

Klassifizierung Payload
Masse 148.00 kg
Trockenmasse 140.00 kg
Gesamtmasse 148.00 kg
Länge 1.30 m
Durchmesser 1.00 m
Spannweite 5.00 m
Form Trapezoid+2 pan
Hersteller ADST
Bus-Typ ARROW
Phasenstatus In Orbit
Besitzer/Staat ONEWEB/UK

Große Konstellationen

Loading constellations...